Change the Weather History Date:

Saturday, December 8, 2012

  Actual Average Record
Temperature  
Mean Temperature 28 °F 21 °F  
Max Temperature 32 °F 30 °F 55 °F (1952)
Min Temperature 24 °F 12 °F -18 °F (1976)
Degree Days  
Heating Degree Days 37 44  
Month to date heating degree days 233 339  
Since 1 July heating degree days 1839 2058  
Cooling Degree Days 0 0  
Month to date cooling degree days 0 0  
Year to date cooling degree days 886 593  
Moisture  
Dew Point 27 °F    
Average Humidity 89    
Maximum Humidity 100    
Minimum Humidity 78    
Precipitation  
Precipitation T in 0.04 in 0.35 in (1966)
Month to date precipitation 0.14 0.38  
Sea Level Pressure  
Sea Level Pressure 29.98 in    
Wind  
Wind Speed 9 mph (ESE)    
Max Wind Speed 21 mph    
Max Gust Speed 25 mph    
Visibility 4 miles    
Events Fog , Snow    
T = Trace of Precipitation, MM = Missing Value Source: NWS Daily Summary

Daily Weather History Graph

Daily Weather History Graph

Search for Another Location

Airport or City:

Trip Planner

Search our weather history database for the weather conditions in past years. The results will help you decide how hot, cold, wet, or windy it might be!

Date:

Astronomy

Dec. 08, 2012 Rise Set
Actual Time 7:39 AM CST 4:42 PM CST
Civil Twilight 7:06 AM CST 5:15 PM CST
Nautical Twilight 6:31 AM CST 5:51 PM CST
Astronomical Twilight 5:56 AM CST 6:25 PM CST
Moon 1:57 AM CST (12/8) 1:20 PM CST (12/8)
Length of Visible Light 10h 08m
Length of Day
9h 03m
Waning Crescent, 28% of the Moon is Illuminated
Dec 8
Waning Crescent
Dec 13
New
Dec 19
First Quarter
Dec 28
Full
Jan 4
Last Quarter

Hourly Weather History & Observations

Time (CST) Temp. Windchill Dew Point Humidity Pressure Visibility Wind Dir Wind Speed Gust Speed Precip Events Conditions
12:52 AM 28.0 °F 20.8 °F 26.1 °F 92% 30.03 in 5.0 mi NNE 6.9 mph - N/A   Overcast
1:52 AM 28.0 °F 22.8 °F 26.1 °F 92% 30.03 in 5.0 mi NE 4.6 mph - N/A   Overcast
2:52 AM 28.0 °F 24.2 °F 26.1 °F 92% 30.04 in 4.0 mi NNE 3.5 mph - N/A   Overcast
3:52 AM 27.0 °F 21.6 °F 25.0 °F 92% 30.04 in 4.0 mi North 4.6 mph - N/A   Overcast
4:04 AM 26.6 °F 20.0 °F 24.8 °F 93% 29.99 in 4.0 mi NNE 5.8 mph - N/A   Overcast
4:52 AM 27.0 °F 19.5 °F 25.0 °F 92% 30.05 in 5.0 mi NNE 6.9 mph - N/A   Overcast
5:24 AM 26.6 °F 17.5 °F 24.8 °F 93% 29.99 in 1.8 mi NE 9.2 mph - N/A   Overcast
5:47 AM 26.6 °F 17.5 °F 24.8 °F 93% 29.99 in 1.0 mi NE 9.2 mph - N/A   Overcast
5:52 AM 26.1 °F 18.4 °F 25.0 °F 96% 30.04 in 0.8 mi NE 6.9 mph - N/A   Mist
6:52 AM 26.1 °F 18.4 °F 24.1 °F 92% 30.05 in 0.5 mi ENE 6.9 mph - N/A Fog Light Freezing Fog
7:52 AM 24.1 °F 16.0 °F 23.0 °F 96% 30.04 in 0.2 mi ESE 6.9 mph - N/A Fog Light Freezing Fog
8:52 AM 25.0 °F 18.1 °F 24.1 °F 96% 30.06 in 0.2 mi SE 5.8 mph - N/A Fog Light Freezing Fog
9:52 AM 26.1 °F 21.9 °F 25.0 °F 96% 30.08 in 0.2 mi Variable 3.5 mph - N/A Fog Light Freezing Fog
10:28 AM 26.6 °F 20.0 °F 26.6 °F 100% 30.02 in 1.2 mi Variable 5.8 mph - N/A   Overcast
10:39 AM 26.6 °F 22.6 °F 26.6 °F 100% 30.01 in 0.8 mi SE 3.5 mph - N/A   Overcast
10:44 AM 26.6 °F 22.6 °F 26.6 °F 100% 30.01 in 1.2 mi SE 3.5 mph - N/A   Overcast
10:50 AM 26.6 °F 21.2 °F 26.6 °F 100% 30.01 in 3.0 mi ESE 4.6 mph - N/A   Overcast
10:52 AM 27.0 °F 20.5 °F 26.1 °F 96% 30.06 in 4.0 mi ESE 5.8 mph - N/A   Overcast
11:24 AM 28.4 °F 21.2 °F 26.6 °F 93% 29.99 in 6.0 mi ESE 6.9 mph - N/A   Overcast
11:52 AM 27.0 °F 18.7 °F 25.0 °F 92% 30.04 in 7.0 mi SE 8.1 mph - N/A   Overcast
12:39 PM 28.4 °F 19.1 °F 26.6 °F 93% 29.97 in 7.0 mi ESE 10.4 mph - N/A   Overcast
12:52 PM 28.0 °F 19.3 °F 26.1 °F 92% 30.01 in 7.0 mi ESE 9.2 mph - N/A   Overcast
1:52 PM 28.9 °F 19.8 °F 26.1 °F 89% 29.99 in 8.0 mi ESE 10.4 mph - N/A   Scattered Clouds
2:17 PM 30.2 °F 20.8 °F 26.6 °F 86% 29.93 in 7.0 mi SE 11.5 mph - N/A   Mostly Cloudy
2:24 PM 30.2 °F 20.8 °F 26.6 °F 86% 29.93 in 7.0 mi SE 11.5 mph - N/A   Scattered Clouds
2:52 PM 28.9 °F 18.6 °F 26.1 °F 89% 29.97 in 7.0 mi SE 12.7 mph - N/A   Partly Cloudy
3:52 PM 30.0 °F 20.0 °F 26.1 °F 85% 29.97 in 7.0 mi SE 12.7 mph - N/A   Clear
4:52 PM 28.9 °F 21.1 °F 26.1 °F 89% 29.97 in 8.0 mi ESE 8.1 mph - N/A   Partly Cloudy
6:52 PM 30.9 °F 22.8 °F 26.1 °F 82% 29.97 in 9.0 mi SE 9.2 mph - N/A   Overcast
7:52 PM 32.0 °F 23.0 °F 27.0 °F 82% 29.97 in 10.0 mi SE 11.5 mph - N/A   Overcast
8:52 PM 32.0 °F 20.8 °F 27.0 °F 82% 29.93 in 7.0 mi SE 17.3 mph - 0.00 in   Overcast
9:27 PM 32.0 °F 20.1 °F 28.4 °F 87% 29.88 in 2.5 mi SSE 19.6 mph - 0.00 in Snow Light Snow
9:50 PM 30.2 °F 17.8 °F 28.4 °F 93% 29.88 in 1.2 mi SE 19.6 mph - 0.00 in Snow Light Snow
9:52 PM 30.9 °F 19.1 °F 28.9 °F 92% 29.93 in 1.2 mi SE 18.4 mph - 0.00 in Snow Light Snow
10:15 PM 32.0 °F 21.6 °F 30.2 °F 93% 29.89 in 2.0 mi SSE 15.0 mph - 0.00 in Snow Light Snow
10:24 PM 32.0 °F 21.2 °F 30.2 °F 93% 29.90 in 2.0 mi SSE 16.1 mph - 0.00 in Snow Light Snow
10:31 PM 32.0 °F 21.2 °F 30.2 °F 93% 29.90 in 2.5 mi SSE 16.1 mph - 0.00 in Snow Light Snow
10:52 PM 32.0 °F 21.6 °F 30.0 °F 92% 29.96 in 1.8 mi South 15.0 mph - 0.00 in Snow Light Snow
11:35 PM 32.0 °F 21.6 °F 30.2 °F 93% 29.90 in 2.5 mi SSE 15.0 mph - 0.00 in Snow Light Snow
11:44 PM 32.0 °F 22.1 °F 30.2 °F 93% 29.90 in 3.0 mi SSE 13.8 mph - 0.00 in   Overcast
11:52 PM 32.0 °F 21.6 °F 30.9 °F 96% 29.94 in 3.0 mi SSE 15.0 mph - 0.00 in Snow Light Snow